Location: Eulenhof
(49.2405°N, 11.2246°E)
Time: 23:50:13
(UTC+00:00)

Daily predictions for brighter satellites

Satellite Brightness Start Highest point End
(mag) Time Altitude Azimuth Time Altitude Azimuth Time Altitude Azimuth
ATLAS 5 CENTAUR R/B 2.0 17:41:13 10° NW 17:43:46 81° SW 17:50:27 10° SE
ATLAS 3B R/B 4.2 17:42:29 10° NW 17:47:50 24° N 17:53:19 10° ENE
Iridium 4 Rocket 3.5 17:43:28 10° SSE 17:48:19 63° E 17:53:40 10° N
SJ-6B 4.4 17:47:27 10° ESE 17:49:54 17° ENE 17:52:22 10° NNE
USA 238 DEB 4.4 17:43:52 10° NW 17:50:36 43° NNE 17:57:36 10° ESE
USA 238 4.4 17:43:58 10° NW 17:50:42 43° NNE 17:57:41 10° ESE
ATLAS CENTAUR R/B 3.3 17:50:08 10° W 17:53:27 26° NW 17:56:41 10° NNE
Cosmos 2263 Rocket 2.3 17:50:45 10° S 17:56:09 55° ESE 18:01:37 10° NE
Meteor 2-9 Rocket 4.3 17:53:30 10° S 17:59:15 61° E 18:04:57 10° NNE
USA 102 4.1 17:54:45 10° SE 18:00:55 70° ENE 18:04:08 10° NNW
SL-08 RB Rocket 4.4 17:57:13 10° SE 18:01:24 35° ENE 18:05:33 10° N
Tsikada Rocket 4.5 17:56:08 10° NNW 18:02:15 67° W 18:08:20 10° S
Cosmos 1844 Rocket 4.1 18:01:00 10° SE 18:04:04 15° E 18:07:08 10° ENE
CZ-2C R/B 3.2 17:59:01 10° SSE 18:04:15 87° ENE 18:09:51 10° NNW
SJ 16-02 1.9 18:00:28 10° SSW 18:04:49 63° WNW 18:09:11 10° NNE
Cosmos 990 Rocket 3.9 18:00:00 10° SSW 18:05:07 79° ESE 18:10:17 10° NNE
Cosmos 2227 4.2 18:00:01 10° SSW 18:05:43 70° ESE 18:11:25 10° NNE
Cosmos 1464 Rocket 4.5 18:00:50 10° SSE 18:06:20 37° E 18:11:54 10° NNE
ISS -1.9 18:04:29 10° S 18:06:35 16° SE 18:08:14 12° ESE
Abrixas rocket 2.1 18:06:05 10° WSW 18:08:52 52° SSE 18:11:15 13° E
Cosmos 1943 3.3 18:04:12 10° NNW 18:09:53 82° WSW 18:15:32 10° SSE
Okean 2 Rocket 4.0 18:06:07 10° SSE 18:09:58 29° E 18:13:50 10° NNE
SJ-11-01 4.3 18:05:52 10° SSE 18:10:36 83° ENE 18:15:20 10° NNW
NOSS 8 (F) 4.1 18:08:28 10° SW 18:11:40 86° NW 18:14:42 10° NE
Okean-O 4.1 18:08:43 10° S 18:12:55 41° W 18:17:08 10° NNW
Lacrosse 5 rocket 2.3 18:09:32 10° W 18:13:40 49° NNW 18:18:02 10° NE
Ariane Rocket 3.4 18:11:17 10° SE 18:16:03 44° ENE 18:20:52 10° N
Cosmos 1437 2.9 18:14:49 10° NNW 18:17:49 68° W 18:20:47 10° S
NOSS 3-2 (A) 4.2 18:12:02 10° NW 18:19:11 58° NE 18:26:32 13° ESE
Meteor 1-21 4.3 18:15:01 10° NNW 18:20:40 82° W 18:26:16 10° S
NOSS 2-2 (C) 3.8 18:17:43 10° S 18:20:52 31° ESE 18:24:18 10° ENE
USA 116 3.6 18:18:52 10° N 18:22:13 76° WNW 18:25:56 10° SSW
Cosmos 1300 Rocket 4.1 18:19:12 10° SSE 18:23:12 36° E 18:27:17 10° NNE
YAOGAN 1 4.1 18:24:28 10° SSW 18:28:32 39° W 18:32:37 10° NNW
HJ-1C 4.2 18:27:41 10° S 18:30:53 53° W 18:34:09 10° NNW
Cosmos 1898 Rocket 3.8 18:27:06 10° SSW 18:32:15 71° WNW 18:37:28 10° NNE
Cosmos 1867 3.6 18:28:01 10° NW 18:33:32 87° SW 18:38:36 12° SE
CSL-04 Rocket 4.3 18:28:27 10° S 18:33:47 59° WSW 18:39:14 10° NNW
Cosmos 1891 Rocket 4.4 18:27:56 10° S 18:33:57 61° E 18:39:55 10° NNE
Cosmos 1536 Rocket 3.9 18:33:38 10° N 18:37:56 45° ENE 18:41:16 16° SE
USA 234 3.9 18:35:43 10° ENE 18:41:30 33° SE 18:47:18 10° SSW
Cosmos 1626 4.0 18:41:21 10° NNE 18:43:18 15° ENE 18:43:18 15° ENE
DMSP B5D2-2 4.4 18:41:07 10° NNE 18:46:12 45° E 18:51:14 10° S
CREW DRAGON DEMO-1 DEB 3.4 18:43:39 10° WNW 18:46:38 51° N 18:47:59 27° ENE
CZ-4 R/B 4.3 18:47:47 10° SW 18:50:55 20° W 18:54:03 10° NW
Cosmos 2151 Rocket 3.7 18:46:44 10° S 18:51:03 51° E 18:55:25 10° NNE
Cosmos 372 Rocket 3.9 18:46:11 10° S 18:51:21 65° ESE 18:56:33 10° NNE
USA 186 1.8 18:48:48 14° S 18:51:25 78° WSW 18:54:40 10° NNW
Cosmos 1025 Rocket 2.9 18:47:34 10° N 18:51:58 80° E 18:56:09 11° SSE
NOSS 3-2 (C) 4.2 18:46:07 10° NW 18:53:19 60° NE 18:58:44 23° ESE
Cosmos 2150 Rocket 4.3 18:48:44 10° S 18:53:49 45° ESE 18:58:59 10° NE
Cosmos 1072 Rocket 4.5 18:50:38 10° S 18:56:53 89° E 19:03:16 10° N
Nadezhda 4 Rocket 3.9 18:52:34 10° N 18:58:43 73° E 19:04:42 11° SSE
Cosmos 1805 4.3 19:00:43 27° ENE 19:00:43 27° ENE 19:03:27 10° NNE
OBJECT-B 0.9 19:01:22 46° ESE 19:01:52 52° ENE 19:05:02 10° N
Cosmos 1937 Rocket 4.2 18:56:50 10° SW 19:02:00 56° WNW 19:07:09 10° NNE
Cosmos 2082 Rocket 4.1 18:58:53 10° N 19:02:17 16° NNE 19:04:43 13° ENE
Cosmos 2034 Rocket 4.0 18:56:47 10° S 19:03:06 69° E 19:09:25 10° NNE
MOS 1 Rocket 3.9 18:58:47 10° N 19:03:14 56° WNW 19:07:28 10° SSW
Cosmos 1125 Rocket 4.0 18:59:58 10° S 19:04:49 38° ESE 19:09:42 10° NE
FREGAT/IRIS 2.5 19:05:32 49° SSW 19:06:01 66° W 19:08:38 10° NNW
Exosat Rocket 4.0 19:01:02 10° S 19:06:09 37° ESE 19:10:44 10° NE
Cosmos 1674 2.7 19:04:57 10° N 19:08:47 59° ENE 19:09:42 44° SE
COSMOS 2406 4.3 19:05:30 10° NNW 19:10:26 29° NE 19:12:17 24° ENE
Meteor 1-24 Rocket 4.2 19:07:31 10° N 19:12:39 39° ENE 19:14:11 33° ESE
In-Cosmos 22 4.4 19:10:33 10° NNW 19:15:47 65° W 19:21:04 10° S
SL-14 R/B 4.4 19:13:20 10° N 19:16:10 27° NE 19:16:10 27° NE
NOSS 2-2 (E) 3.6 19:14:35 10° SW 19:18:05 62° NW 19:22:13 10° NE
Resurs 01 Rocket 1.8 19:19:16 44° ESE 19:20:11 53° ENE 19:24:32 10° N
H-2A R/B 4.0 19:16:45 10° SSW 19:20:58 28° W 19:25:17 10° NW
Cosmos 1707 4.4 19:17:42 10° NNW 19:21:10 32° W 19:24:35 10° SSW
ATLAS 2AS CENTAUR R/B 3.9 19:16:24 10° SSE 19:24:48 26° E 19:29:26 10° NE
CZ-2C R/B 2.8 19:18:11 10° NNE 19:23:44 83° WNW 19:29:20 10° SSW
SJ-6B 3.6 19:21:47 19° SSW 19:24:13 47° W 19:27:53 10° NNW
Lacrosse 4 Rocket 3.6 19:23:25 10° N 19:25:20 13° NNE 19:25:54 13° NE
KORONAS-FOTON 3.7 19:22:28 10° N 19:26:26 89° E 19:27:14 55° S
NOSS 2-2 (D) 3.5 19:23:01 10° SW 19:26:32 65° NW 19:30:35 10° NE
Cosmos 1048 Rocket 4.3 19:26:08 10° NNW 19:31:25 68° WSW 19:34:10 29° S
Cosmos 1766 4.2 19:33:40 35° NE 19:33:40 35° NE 19:36:14 10° NNE
SPOT 1/Viking Rocket 4.2 19:33:46 35° ENE 19:34:04 35° ENE 19:38:45 10° N
CENTAUR R/B 3.1 19:26:17 10° NW 19:34:16 83° NE 19:38:32 35° SE
Cosmos 1844 3.6 19:29:34 10° S 19:35:10 60° ESE 19:40:44 10° NE
IGS 5A 4.3 19:37:08 36° NE 19:37:08 36° NE 19:40:19 10° N
Cosmos 1634 Rocket 4.0 19:34:24 36° SSE 19:36:43 57° E 19:42:46 10° NNE
ARIANE 5 R/B 3.0 19:37:43 46° ENE 19:37:43 46° ENE 19:41:39 10° N
SWAS 4.3 19:34:19 10° NNW 19:38:38 88° WSW 19:39:04 72° SSE
ATLAS 3B R/B 3.3 19:33:48 10° NW 19:40:16 44° NE 19:42:49 32° E
Cosmos 2263 Rocket 4.0 19:35:28 10° WSW 19:40:23 31° NW 19:45:22 10° NNE
Cosmos 1269 Rocket 4.1 19:35:26 10° NNW 19:40:43 59° ENE 19:41:30 53° E
Cosmos 2285 Rocket 3.9 19:35:13 10° S 19:41:26 66° ESE 19:47:44 10° NNE
USA 238 DEB 4.0 19:34:53 10° NW 19:42:03 69° SW 19:45:38 33° SSE
MetOp-B 4.2 19:41:10 52° ESE 19:42:08 62° ENE 19:47:26 10° N
USA 238 4.0 19:34:59 10° NW 19:42:09 70° SW 19:45:43 33° SSE
ISS -2.0 19:39:35 10° WSW 19:41:14 26° SW 19:41:14 26° SW
Abrixas rocket 4.1 19:41:13 10° W 19:42:32 24° W 19:42:32 24° W
Cosmos 1844 Rocket 2.5 19:41:32 10° SSW 19:47:06 87° ESE 19:52:45 10° NNE
Spot 2 Rocket 3.7 19:48:07 50° ENE 19:48:10 50° ENE 19:53:03 10° N
Cosmos 1627 Rocket 4.5 19:44:34 10° N 19:51:00 88° E 19:53:34 40° S
Okean 1 Rocket 3.1 19:51:22 61° SSW 19:52:06 82° W 19:56:38 10° N
Lacrosse 5 rocket 3.1 19:49:44 10° WNW 19:53:39 30° N 19:55:13 24° NE
Cosmos 1092 Rocket 4.1 19:50:58 10° NNW 19:57:06 70° W 20:00:14 30° S
Cosmos 494 Rocket 4.5 19:59:15 10° NNW 20:04:23 55° WSW 20:05:36 44° SSW
Cosmos 2026 Rocket 4.0 19:58:18 10° NNW 20:04:40 79° W 20:06:55 43° S
CZ-2C R/B 3.8 20:00:34 10° N 20:05:00 70° WNW 20:05:30 63° WSW
Meteor 2-19 Rocket 4.4 19:59:19 10° N 20:05:24 59° ENE 20:05:39 58° E
SPOT 3 Rocket 4.3 20:03:38 32° SSW 20:05:36 49° W 20:10:37 10° NNW
Cosmos 1833 Rocket 3.0 20:02:12 10° NNW 20:07:43 50° NE 20:07:46 50° ENE
Cosmos 2251 Rocket 4.5 20:08:23 10° N 20:12:49 36° NE 20:12:49 36° NE
Terra 3.2 20:19:13 28° NNE 20:19:13 28° NNE 20:22:02 10° N
Cosmos 1626 3.7 20:15:29 10° NNW 20:17:51 34° NW 20:17:51 34° NW
Cosmos 2279 Rocket 3.8 20:20:51 75° ESE 20:21:00 75° E 20:27:17 10° NNE
Cosmos 1892 Rocket 4.3 20:16:54 10° NNW 20:20:06 48° NNW 20:20:06 48° NNW
Cosmos 2142 Rocket 4.4 20:21:19 68° S 20:22:12 87° E 20:28:29 10° N
USA 234 3.1 20:19:23 15° ENE 20:25:02 90° NNW 20:31:37 10° WSW
OBJECT-B 4.0 20:34:34 11° W 20:34:34 11° W 20:35:25 10° WNW
SPOT 5 3.6 20:40:09 51° N 20:40:09 51° N 20:44:11 10° N
Cosmos 2082 Rocket 2.8 20:42:03 10° NNW 20:46:33 49° NNE 20:46:33 49° NNE
COSMOS 2406 3.7 20:49:33 10° NW 20:54:20 55° WNW 20:54:20 55° WNW
ERS-1 Rocket 3.9 20:57:24 46° NNW 20:57:24 46° NNW 21:00:57 10° NNW
Resurs 01 Rocket 3.8 20:56:51 19° W 20:56:59 19° W 21:00:14 10° NW
Cosmos 2098 Rocket 4.2 20:56:45 10° NNW 21:03:50 72° W 21:03:50 72° W
Lacrosse 4 Rocket 3.8 21:00:50 10° NNW 21:02:11 20° NNW 21:02:11 20° NNW
Cosmos 2266 Rocket 4.2 21:00:34 10° N 21:05:34 62° NNW 21:05:34 62° NNW
Cosmos 1655 Rocket 4.4 21:06:48 10° NNW 21:12:30 58° WNW 21:12:30 58° WNW
ATLAS 2AS CENTAUR R/B 2.9 21:11:59 67° SW 21:13:15 85° NW 21:21:09 10° NE
Cosmos 2278 Rocket 3.9 21:22:33 25° NNE 21:22:33 25° NNE 21:24:48 10° NNE
CENTAUR R/B 4.2 21:17:32 10° NW 21:24:35 33° WSW 21:25:44 32° SW
ATLAS 3B R/B 3.2 21:24:32 10° NW 21:30:03 53° W 21:30:03 53° W
Lacrosse 5 rocket 4.1 21:29:24 10° NW 21:30:50 19° NW 21:30:50 19° NW
Cosmos 1833 Rocket 4.5 21:46:31 10° NW 21:49:28 25° WNW 21:49:28 25° WNW
Terra 4.2 21:58:06 20° NW 21:58:06 20° NW 21:59:49 10° NNW
USA 234 3.9 22:01:31 10° ENE 22:07:47 51° NNW 22:14:03 10° W
Cosmos 2082 Rocket 4.4 22:26:45 10° NW 22:28:23 17° WNW 22:28:23 17° WNW
Cosmos 2369 Rocket 4.4 22:59:19 18° NE 22:59:19 18° NE 23:00:46 10° NE
CZ-4C R/B 4.1 23:02:00 26° NNE 23:02:00 26° NNE 23:04:51 10° NE
Cosmos 2278 Rocket 4.3 23:04:22 21° NW 23:04:22 21° NW 23:08:18 10° N
ATLAS 2AS CENTAUR R/B 4.2 22:59:08 14° W 23:05:17 37° NNW 23:12:21 10° NE
Cosmos 2227 Rocket 4.3 23:38:30 10° N 23:42:43 21° NE 23:43:29 20° NE
USA 234 4.0 23:44:00 10° ENE 23:50:11 47° N 23:56:22 10° WNW
